EW8655 Weather Reports


Display with metric or nautical units.
time (UTC)temp
F
wind
direction
speed
MPH
gust
MPH
rain 1hr
in
rain 24hr
in
rain mn
in
humidity
%
barometer
mb
20260903044008 70 251 5.0 9.0 0.00 0.00 0.00 99 1009.1
20260903043508 70 221 7.0 9.0 0.00 0.00 0.00 99 1009.1
20260903043008 70 211 9.0 12.0 0.00 0.00 0.00 99 1009.1
20260903042507 70 210 9.0 12.0 0.00 0.00 0.00 99 1009.1
20260903042008 70 212 7.0 9.0 0.00 0.00 0.00 99 1009.1
20260903041507 70 217 7.0 12.0 0.00 0.00 0.00 99 1009.1
20260903041009 70 210 7.0 12.0 0.00 0.00 0.00 99 1008.8
20260903040508 70 205 7.0 9.0 0.00 0.00 0.00 99 1009.1
20260903040009 70 201 7.0 9.0 0.00 0.00 0.00 99 1009.1
20260903035507 70 203 7.0 7.0 0.00 0.00 0.00 99 1009.1
20260903035007 70 206 6.0 7.0 0.00 0.00 0.00 99 1009.1
20260903034506 70 201 5.0 7.0 0.00 0.00 0.00 99 1009.1
20260903034008 70 202 5.0 9.0 0.00 0.00 0.00 99 1009.1
20260903033508 70 213 7.0 9.0 0.00 0.00 0.00 99 1009.1
20260903033007 70 221 7.0 9.0 0.00 0.00 0.00 99 1009.1
20260903032506 70 224 9.0 12.0 0.00 0.00 0.00 99 1009.1
20260903031008 70 226 12.0 14.0 0.00 0.00 0.00 99 1010.1
20260903030507 70 226 9.0 12.0 0.00 0.00 0.00 99 1010.1
20260903030007 70 212 10.0 14.0 0.00 0.00 0.00 99 1010.1
20260903025507 70 203 12.0 16.0 0.00 0.00 0.00 99 1009.9
20260903025007 70 210 12.0 16.0 0.00 0.00 0.00 99 1010.1
20260903024507 70 200 14.0 18.0 0.00 0.00 0.00 99 1009.9
20260903024007 70 204 14.0 18.0 0.00 0.00 0.00 99 1010.1
20260903023507 70 211 14.0 18.0 0.00 0.00 0.00 99 1009.6
20260903023007 70 215 12.0 18.0 0.00 0.00 0.00 99 1010.1
20260903022506 70 202 12.0 18.0 0.00 0.00 0.00 99 1009.1
20260903022008 70 197 15.0 18.0 0.00 0.00 0.00 99 1010.1
20260903021007 70 233 14.0 20.0 0.00 0.00 0.00 99 1010.1
20260903020507 70 208 14.0 18.0 0.00 0.00 0.00 99 1010.1
20260903020007 70 221 14.0 18.0 0.00 0.00 0.00 99 1010.1
20260903015507 70 196 12.0 18.0 0.00 0.00 0.00 99 1009.1
20260903015008 69 192 12.0 18.0 0.00 0.00 0.00 99 1008.1
20260903014506 69 177 12.0 20.0 0.00 0.00 0.00 99 1008.6
20260903014008 69 181 9.0 20.0 0.00 0.00 0.00 99 1009.1
20260903013508 69 181 9.0 20.0 0.00 0.00 0.00 99 1009.1
20260903013008 69 184 12.0 20.0 0.00 0.00 0.00 99 1009.1
20260903012007 69 175 6.0 12.0 0.00 0.00 0.00 98 1010.1
20260903011507 70 180 5.0 9.0 0.00 0.00 0.00 98 1010.1
20260903010507 70 184 5.0 5.0 0.00 0.00 0.00 98 1010.1
20260903010006 70 142 5.0 5.0 0.00 0.00 0.00 98 1010.1
20260903005507 70 146 5.0 7.0 0.00 0.00 0.00 98 1010.1
20260903005008 70 141 2.0 7.0 0.00 0.00 0.00 98 1010.1
20260903004507 70 151 2.0 9.0 0.00 0.00 0.00 97 1010.1
20260903004008 70 159 5.0 12.0 0.00 0.00 0.00 97 1010.1
20260903003507 69 197 9.0 12.0 0.00 0.00 0.00 97 1010.1
20260903003007 70 211 7.0 9.0 0.00 0.00 0.00 97 1010.1
20260903002507 70 191 9.0 9.0 0.00 0.00 0.00 97 1010.1
20260903002008 69 190 3.0 9.0 0.00 0.00 0.00 97 1010.1
20260903001506 69 143 0.0 5.0 0.00 0.00 0.00 97 1010.1
20260903000507 69 133 5.0 9.0 0.00 0.00 0.00 97 1009.1
20260903000006 69 108 2.0 9.0 0.00 0.00 0.00 96 1010.1
20260902235506 69 180 2.0 9.0 0.00 0.00 0.00 96 1010.4
20260902234507 69 195 7.0 12.0 0.00 0.00 0.00 95 1010.1
20260902234008 69 193 5.0 12.0 0.00 0.00 0.00 95 1009.1
20260902233507 69 320 0.0 7.0 0.00 0.00 0.00 95 1009.5
20260902233008 69 25 2.0 12.0 0.00 0.00 0.00 95 1010.1
20260902232506 69 304 6.0 22.0 0.00 0.00 0.00 94 1012.1
20260902231507 68 29 16.0 26.0 0.00 0.00 0.00 93 1010.1
20260902230508 73 357 7.0 16.0 0.00 0.00 0.00 91 1009.1
20260902230007 74 26 5.0 9.0 0.00 0.00 0.00 93 1008.7
20260902225007 74 115 4.0 5.0 0.00 0.00 0.00 92 1008.1
20260902224008 75 110 2.0 5.0 0.00 0.00 0.00 92 1008.1
20260902223507 75 117 2.0 5.0 0.00 0.00 0.00 91 1009.1
20260902223007 75 115 2.0 5.0 0.00 0.00 0.00 91 1008.1
20260902222506 75 118 2.0 5.0 0.00 0.00 0.00 91 1008.1
20260902222008 75 122 2.0 5.0 0.00 0.00 0.00 90 1008.1
20260902221507 75 115 3.0 5.0 0.00 0.00 0.00 89 1008.1
20260902221008 75 113 5.0 7.0 0.00 0.00 0.00 88 1008.1
20260902220007 75 95 7.0 7.0 0.00 0.00 0.00 86 1008.1
20260902215008 76 83 6.0 7.0 0.00 0.00 0.00 83 1008.1
20260902214507 77 86 5.0 7.0 0.00 0.00 0.00 80 1008.1
20260902214007 78 92 5.0 5.0 0.00 0.00 0.00 79 1008.1
20260902213507 79 76 2.0 5.0 0.00 0.00 0.00 77 1008.1
20260902213007 80 74 2.0 2.0 0.00 0.00 0.00 76 1008.1
20260902212506 81 69 0.0 2.0 0.00 0.00 0.00 76 1008.1
20260902212007 81 65 0.0 2.0 0.00 0.00 0.00 73 1008.1
20260902211506 84 76 0.0 2.0 0.00 0.00 0.00 72 1008.1
20260902211008 85 165 0.0 5.0 0.00 0.00 0.00 72 1008.1
20260902210507 85 167 1.0 5.0 0.00 0.00 0.00 72 1008.1
20260902205007 85 209 2.0 5.0 0.00 0.00 0.00 71 1009.0
20260902204506 85 208 5.0 5.0 0.00 0.00 0.00 71 1009.1
20260902204007 85 201 3.0 5.0 0.00 0.00 0.00 71 1009.1
20260902203507 85 232 2.0 5.0 0.00 0.00 0.00 71 1009.2
20260902203007 85 238 5.0 7.0 0.00 0.00 0.00 71 1010.1
20260902202506 85 213 2.0 7.0 0.00 0.00 0.00 71 1010.1
20260902202008 85 235 5.0 7.0 0.00 0.00 0.00 72 1010.1
20260902201506 84 243 7.0 9.0 0.00 0.00 0.00 72 1010.1
20260902201007 83 249 7.0 9.0 0.00 0.00 0.00 73 1010.1
20260902200507 84 228 7.0 12.0 0.00 0.00 0.00 73 1010.1
20260902200006 83 233 7.0 12.0 0.00 0.00 0.00 74 1010.1
20260902195506 83 236 7.0 12.0 0.00 0.00 0.00 74 1010.1
20260902194506 83 245 9.0 14.0 0.00 0.00 0.00 74 1010.1
20260902194007 83 245 11.0 14.0 0.00 0.00 0.00 74 1010.1
20260902192506 83 228 13.0 18.0 0.00 0.00 0.00 74 1010.1
20260902191506 83 244 14.0 16.0 0.00 0.00 0.00 75 1010.1
20260902191007 83 234 12.0 16.0 0.00 0.00 0.00 76 1010.1
20260902190507 83 232 12.0 16.0 0.00 0.00 0.00 76 1010.1
20260902190007 83 227 12.0 14.0 0.00 0.00 0.00 76 1010.1
20260902184506 83 237 9.0 12.0 0.00 0.00 0.00 75 1010.1
20260902184007 83 229 9.0 12.0 0.00 0.00 0.00 75 1010.1
20260902183507 83 231 8.0 12.0 0.00 0.00 0.00 75 1010.1
20260902183007 83 229 7.0 12.0 0.00 0.00 0.00 76 1009.1
20260902182506 83 225 9.0 12.0 0.00 0.00 0.00 76 1009.1
20260902182007 83 235 9.0 12.0 0.00 0.00 0.00 75 1010.1
20260902181505 83 233 9.0 12.0 0.00 0.00 0.00 75 1010.1
20260902181007 83 240 9.0 12.0 0.00 0.00 0.00 74 1010.1
20260902180507 83 223 8.0 12.0 0.00 0.00 0.00 74 1010.1
20260902180007 83 237 9.0 14.0 0.00 0.00 0.00 73 1010.1
20260902175506 83 227 10.0 18.0 0.00 0.00 0.00 73 1010.1
20260902175007 83 234 14.0 18.0 0.00 0.00 0.00 74 1010.1
20260902174506 83 229 14.0 18.0 0.00 0.00 0.00 73 1010.1
20260902174007 84 225 12.0 16.0 0.00 0.00 0.00 74 1010.1
20260902173506 84 227 12.0 14.0 0.00 0.00 0.00 74 1010.1
20260902173006 85 211 12.0 14.0 0.00 0.00 0.00 76 1010.1
20260902172506 84 215 11.0 16.0 0.00 0.00 0.00 76 1010.1
20260902172006 83 235 12.0 16.0 0.00 0.00 0.00 76 1010.1
20260902171506 83 229 12.0 16.0 0.00 0.00 0.00 76 1010.1
20260902170006 83 215 10.0 14.0 0.00 0.00 0.00 77 1010.1
20260902165505 83 210 10.0 14.0 0.00 0.00 0.00 78 1010.1
20260902165006 82 199 10.0 14.0 0.00 0.00 0.00 79 1010.1
20260902164506 82 218 11.0 14.0 0.00 0.00 0.00 79 1010.1
20260902164007 82 225 10.0 14.0 0.00 0.00 0.00 80 1010.1
20260902163507 81 230 10.0 14.0 0.00 0.00 0.00 81 1010.1
20260902163007 81 245 12.0 14.0 0.00 0.00 0.00 81 1010.1
20260902162506 81 226 9.0 14.0 0.00 0.00 0.00 82 1010.1
20260902162006 80 224 9.0 14.0 0.00 0.00 0.00 83 1010.1
20260902161506 80 245 9.0 14.0 0.00 0.00 0.00 83 1010.9
20260902161007 79 232 7.0 12.0 0.00 0.00 0.00 84 1011.1
20260902160008 79 228 9.0 12.0 0.00 0.00 0.00 88 1011.1
20260902155505 78 211 9.0 14.0 0.00 0.00 0.00 91 1011.8
20260902155006 78 216 9.0 14.0 0.00 0.00 0.00 95 1012.1
20260902154506 77 206 9.0 12.0 0.00 0.00 0.00 97 1012.1
20260902154006 77 200 9.0 12.0 0.00 0.00 0.00 99 1011.9
20260902153507 76 195 8.0 12.0 0.00 0.00 0.00 99 1012.1
20260902153007 75 205 7.0 12.0 0.00 0.00 0.00 99 1012.1
20260902152506 75 218 9.0 12.0 0.00 0.00 0.00 99 1012.1
20260902152007 74 191 7.0 12.0 0.00 0.00 0.00 99 1012.1
20260902151505 73 211 9.0 14.0 0.00 0.00 0.00 99 1012.1
20260902151007 73 222 10.0 14.0 0.00 0.00 0.00 99 1012.1
20260902150506 73 222 9.0 12.0 0.00 0.00 0.00 99 1012.1
20260902150005 73 214 9.0 12.0 0.00 0.00 0.00 99 1012.1
20260902144007 72 199 9.0 16.0 0.00 0.00 0.00 99 1012.1
20260902143506 72 196 10.0 14.0 0.00 0.00 0.00 99 1012.1
20260902143006 72 195 9.0 16.0 0.00 0.00 0.00 99 1012.1
20260902142506 71 193 12.0 16.0 0.00 0.00 0.00 99 1012.1
20260902141506 71 194 9.0 12.0 0.00 0.00 0.00 99 1012.1
20260902140006 69 150 0.0 5.0 0.00 0.00 0.00 99 1013.1
20260902135506 69 143 0.0 5.0 0.00 0.00 0.00 99 1013.1
20260902135007 69 135 0.0 5.0 0.00 0.00 0.00 99 1013.1
20260902134506 69 95 0.0 7.0 0.00 0.00 0.00 99 1013.1
20260902134006 69 143 1.0 12.0 0.00 0.00 0.00 99 1013.1
20260902133506 68 191 8.0 12.0 0.00 0.00 0.00 99 1013.1
20260902133006 68 198 7.0 12.0 0.00 0.00 0.00 99 1013.1
20260902132505 68 214 5.0 7.0 0.00 0.00 0.00 99 1013.1
20260902132006 68 202 5.0 7.0 0.00 0.00 0.00 99 1013.1
20260902131505 67 203 5.0 7.0 0.00 0.00 0.00 99 1013.1
20260902130506 67 283 2.0 7.0 0.00 0.00 0.00 98 1013.1
20260902130006 68 310 5.0 9.0 0.00 0.00 0.00 98 1013.1
20260902125505 68 324 5.0 12.0 0.00 0.00 0.00 98 1013.1
20260902125006 68 338 5.0 12.0 0.00 0.00 0.00 98 1013.1
20260902124505 69 315 5.0 14.0 0.00 0.00 0.00 98 1013.1
20260902124006 69 317 5.0 14.0 0.00 0.00 0.00 97 1013.1
20260902123007 70 343 10.0 24.0 0.00 0.00 0.00 97 1013.1
20260902122505 72 248 0.0 14.0 0.00 0.00 0.00 98 1013.1
20260902122006 72 147 1.0 5.0 0.00 0.00 0.00 99 1012.1
20260902121505 72 120 3.0 12.0 0.00 0.00 0.00 98 1013.1
20260902121006 72 102 7.0 12.0 0.00 0.00 0.00 98 1012.1
20260902120505 72 91 9.0 12.0 0.00 0.00 0.00 98 1012.1
20260902120006 72 90 7.0 9.0 0.00 0.00 0.00 98 1012.1
20260902115505 72 87 5.0 7.0 0.00 0.00 0.00 98 1012.1
20260902115006 72 83 5.0 7.0 0.00 0.00 0.00 98 1012.1
20260902114006 72 102 5.0 5.0 0.00 0.00 0.00 98 1012.1
20260902113506 73 106 2.0 5.0 0.00 0.00 0.00 98 1012.1
20260902113006 73 108 0.0 0.0 0.00 0.00 0.00 98 1012.1
20260902112505 73 114 0.0 2.0 0.00 0.00 0.00 97 1010.1
20260902112006 72 123 0.0 2.0 0.00 0.00 0.00 97 1010.1
20260902111505 72 119 0.0 0.0 0.00 0.00 0.00 97 1010.1
20260902110505 72 114 0.0 0.0 0.00 0.00 0.00 97 1011.1
20260902110008 73 122 0.0 0.0 0.00 0.00 0.00 97 1011.1
20260902105505 73 124 0.0 0.0 0.00 0.00 0.00 97 1011.1
20260902105006 73 126 0.0 0.0 0.00 0.00 0.00 97 1010.1
20260902104505 73 138 0.0 0.0 0.00 0.00 0.00 97 1010.1
20260902104006 73 129 0.0 0.0 0.00 0.00 0.00 97 1010.1
20260902103506 73 135 0.0 0.0 0.00 0.00 0.00 97 1010.1
20260902103006 73 134 0.0 0.0 0.00 0.00 0.00 97 1010.1
20260902102505 73 123 0.0 0.0 0.00 0.00 0.00 97 1011.1
20260902102007 73 111 0.0 0.0 0.00 0.00 0.00 97 1010.1
20260902101505 73 122 0.0 2.0 0.00 0.00 0.00 97 1010.1
20260902101006 73 140 0.0 2.0 0.00 0.00 0.00 97 1010.1
20260902100006 73 149 0.0 2.0 0.00 0.00 0.00 97 1010.2
20260902095506 73 152 0.0 5.0 0.00 0.00 0.00 97 1010.1
20260902095009 73 160 1.0 5.0 0.00 0.00 0.00 97 1010.6
20260902094506 73 165 0.0 2.0 0.00 0.00 0.00 97 1011.1
20260902094008 73 172 1.0 5.0 0.00 0.00 0.00 97 1011.1
20260902093507 73 161 2.0 5.0 0.00 0.00 0.00 97 1012.1
20260902093007 73 170 2.0 7.0 0.00 0.00 0.00 97 1012.1
20260902092507 73 176 5.0 7.0 0.00 0.00 0.00 97 1012.1
20260902091507 73 194 5.0 7.0 0.00 0.00 0.00 97 1012.1
20260902091007 73 186 5.0 7.0 0.00 0.00 0.00 97 1012.1
20260902085507 73 179 0.0 2.0 0.00 0.00 0.00 97 1012.1
20260902085008 73 163 0.0 5.0 0.00 0.00 0.00 97 1012.1
20260902084007 73 183 2.0 5.0 0.00 0.00 0.00 97 1012.1
20260902083507 73 183 2.0 5.0 0.00 0.00 0.00 97 1012.1
20260902083008 73 171 2.0 7.0 0.00 0.00 0.00 97 1012.1
20260902082507 73 177 2.0 7.0 0.00 0.00 0.00 97 1012.1
20260902082008 73 179 2.0 5.0 0.00 0.00 0.00 97 1012.1
20260902081507 73 188 5.0 5.0 0.00 0.00 0.00 97 1012.1
20260902081009 73 196 5.0 5.0 0.00 0.00 0.00 97 1012.1
20260902080508 72 202 5.0 5.0 0.00 0.00 0.00 97 1012.1
20260902080009 72 193 5.0 5.0 0.00 0.00 0.00 97 1012.1
20260902074507 72 188 1.0 5.0 0.00 0.00 0.00 97 1012.1
20260902074008 72 175 0.0 2.0 0.00 0.00 0.00 97 1012.1
20260902073008 71 159 0.0 2.0 0.00 0.00 0.00 97 1012.1
20260902072007 71 181 1.0 5.0 0.00 0.00 0.00 97 1012.1
20260902071507 71 177 0.0 5.0 0.00 0.00 0.00 97 1012.1
20260902071007 71 172 0.0 0.0 0.00 0.00 0.00 97 1012.1
20260902070507 71 175 0.0 0.0 0.00 0.00 0.00 97 1012.1
20260902070008 71 149 0.0 2.0 0.00 0.00 0.00 97 1012.1
20260902065506 71 166 0.0 5.0 0.00 0.00 0.00 97 1012.1
20260902064007 71 193 1.0 5.0 0.00 0.00 0.00 97 1012.1
20260902063508 71 173 0.0 0.0 0.00 0.00 0.00 98 1012.1
20260902063008 71 143 0.0 0.0 0.00 0.00 0.00 98 1012.1
20260902062507 71 139 0.0 0.0 0.00 0.00 0.00 98 1012.1
20260902062007 71 124 0.0 0.0 0.00 0.00 0.00 98 1012.1
20260902061506 71 128 0.0 0.0 0.00 0.00 0.00 97 1012.1
20260902061007 71 139 0.0 0.0 0.00 0.00 0.00 97 1013.1
20260902060508 70 136 0.0 0.0 0.00 0.00 0.00 97 1013.1
20260902060007 71 134 0.0 0.0 0.00 0.00 0.00 97 1013.1
20260902055507 71 132 0.0 0.0 0.00 0.00 0.00 97 1013.1
20260902055008 71 136 0.0 0.0 0.00 0.00 0.00 97 1013.1
20260902054507 71 136 0.0 0.0 0.00 0.00 0.00 97 1013.1
20260902053508 71 124 0.0 0.0 0.00 0.00 0.00 97 1013.1
20260902053007 71 137 0.0 0.0 0.00 0.00 0.00 97 1013.1
20260902052507 71 140 0.0 0.0 0.00 0.00 0.00 97 1013.1
20260902051507 71 131 0.0 0.0 0.00 0.00 0.00 97 1013.1
20260902051008 71 131 0.0 0.0 0.00 0.00 0.00 97 1013.1
20260902050507 71 139 0.0 0.0 0.00 0.00 0.00 97 1013.1
20260902050008 71 139 0.0 0.0 0.00 0.00 0.00 97 1013.1
20260902045507 71 132 0.0 0.0 0.00 0.00 0.00 97 1013.1
20260902044507 71 139 0.0 0.0 0.00 0.00 0.00 97 1013.1